Regional Weather Roundup
Issued by NWS

Home | Current Version | Previous Version | Text Only | Print | Product List | Glossary Off
Versions: 1 2 3 4 5 6 7 8 9 10 11 12 13 14 15 16 17 18 19 20 21 22 23 24 25 26 27 28 29 30 31 32 33 34 35 36 37 38 39 40 41 42 43 44 45 46 47 48 49 50

667
ASUS43 KDMX 101208
RWRIA

WEATHER ROUNDUP FOR IOWA
NATIONAL WEATHER SERVICE DES MOINES IA
600 AM CST WED FEB 10 2016

NOTE: "FAIR" INDICATES FEW OR NO CLOUDS BELOW 12,000 FEET WITH NO
SIGNIFICANT WEATHER AND/OR OBSTRUCTIONS TO VISIBILITY.

* - THESE STATIONS ARE NOT NWS STATIONS...THUS NOT UNDER NWS
QUALITY CONTROL.  THEY ALSO DO NOT REPORT WEATHER SUCH
AS PRECIPITATION OR FOG.

IAZ001>003-012>014-020>022-031>034-043>046-101300-
   NORTHWEST IOWA

CITY           SKY/WX    TMP DP  RH WIND       PRES   REMARKS
CARROLL *      LGT SNOW  18  14  86 CALM      30.09S
CHEROKEE *     LGT SNOW  19  17  90 SE5       30.06F WCI  12
DENISON *      CLOUDY    21  16  79 SE5       30.05S WCI  15
LE MARS *      CLOUDY    21  19  93 SE9G15    30.03F WCI  11
ORANGE CITY *  LGT SNOW  19  18  93 CALM      30.02F
SHELDON *      LGT SNOW  16  14  93 E10       30.02F WCI   3
SIOUX CITY     CLOUDY    22  16  78 SE12      30.02F WCI  10
6HR MIN TEMP:  16; 6HR MAX TEMP:  22; 6HR PCP: TRACE;

SPENCER        LGT SNOW  15   9  76 E9        30.06F WCI   3
6HR MIN TEMP:  15; 6HR MAX TEMP:  19; 6HR PCP: TRACE;

STORM LAKE *   LGT SNOW  18  16  93 SE3       30.06S
$$

IAZ055>058-069>071-079>083-090>094-101300-
   SOUTHWEST IOWA

CITY           SKY/WX    TMP DP  RH WIND       PRES   REMARKS
ATLANTIC *     CLOUDY    21  16  79 CALM      30.08F
AUDUBON *      FLURRIES  19  16  86 CALM      30.08F
CLARINDA *     CLOUDY    23  19  86 S5        30.12F WCI  17
COUNCIL BLFS * MIX PCPN  23  18  80 S7        30.06F WCI  15
CRESTON *      CLOUDY    19  16  86 CALM      30.10S
HARLAN  *      FLURRIES  19  16  86 CALM      30.11F
LAMONI         CLOUDY    19  13  77 SW5       30.11S WCI  12
6HR MIN TEMP:  16; 6HR MAX TEMP:  20;

RED OAK *      MIX PCPN  23  19  86 S5        30.10S WCI  17
SHENANDOAH *   CLOUDY    25  19  80 S7        30.11F WCI  17
$$

IAZ047>049-059>061-072>074-084-101300-
   CENTRAL IOWA

CITY           SKY/WX    TMP DP  RH WIND       PRES   REMARKS
AMES           CLOUDY    13   6  74 N6        30.12S WCI   4
6HR MIN TEMP:  12; 6HR MAX TEMP:  14;

ANKENY *       CLOUDY    14   5  67 N3        30.14R
BOONE *        CLOUDY    12   3  67 NE6       30.10R WCI   3
CHARITON *     CLOUDY    14   9  79 CALM      30.12S
DES MOINES     CLOUDY    16   7  67 N3        30.13S
6HR MIN TEMP:  14; 6HR MAX TEMP:  17;

GRINNELL*      CLOUDY    10   5  79 NW7       30.12R WCI   0
KNOXVILLE *    CLOUDY    14   5  67 NW5       30.12S WCI   6
MARSHALLTOWN   CLOUDY     9   3  77 NW8       30.11R WCI  -3
6HR MIN TEMP:   5; 6HR MAX TEMP:   9;

NEWTON *       CLOUDY    12   5  73 N7        30.13R WCI   2
PELLA *        CLOUDY    14   6  71 NW3       30.14S
$$

IAZ004>006-015-016-023>025-035-036-101300-
   NORTH CENTRAL IOWA

CITY           SKY/WX    TMP DP  RH WIND       PRES   REMARKS
ALGONA *       CLOUDY    10   5  79 NE5       30.08S WCI   2
CLARION *      CLOUDY     9   1  72 N3        30.10F
ESTHERVILLE    LGT SNOW   9   3  77 NE5       30.07F VSB 1   WCI   1
6HR MIN TEMP:   9; 6HR MAX TEMP:  15; 6HR PCP: TRACE;

FORT DODGE *   CLOUDY    10   3  72 E6        30.10F WCI   1
MASON CITY     CLOUDY     4   0  83 N7        30.09S WCI  -8
6HR MIN TEMP:   0; 6HR MAX TEMP:   6;

FOREST CITY *  CLOUDY     9   1  72 N3        30.08F
WEBSTER CITY * CLOUDY    10   5  79 CALM      30.09F
IOWA FALLS *   CLOUDY     9   5  85 W3        30.11F
$$

IAZ007>011-017>019-026>030-037>042-050>054-066-101300-
   NORTHEAST IOWA

CITY           SKY/WX    TMP DP  RH WIND       PRES   REMARKS
CEDAR RAPIDS   CLOUDY     6   2  83 NW7       30.09S WCI  -6
6HR MIN TEMP:   5; 6HR MAX TEMP:  10;

CHARLES CITY * CLOUDY     1  -2  85 NW8       30.09S WCI -12
CLINTON *      CLEAR      4  -1  80 W9        30.09R WCI -10
DECORAH *      CLEAR      0  -8  71 NW7       30.06R WCI -13
DUBUQUE        CLOUDY     5  -4  66 NW13      30.04R WCI -12
6HR MIN TEMP:   5; 6HR MAX TEMP:   9;

MONTICELLO *   CLEAR      5  -4  66 NW7       30.09R WCI  -7
OELWEIN *      CLOUDY     1  -6  71 NW7       30.09R WCI -11
WATERLOO       MOCLDY     3  -2  79 NW6       30.11R WCI  -8
6HR MIN TEMP:   1; 6HR MAX TEMP:   7;

$$

IAZ064-065-067-068-078-101300-
   EAST CENTRAL IOWA

CITY           SKY/WX    TMP DP  RH WIND       PRES   REMARKS
DAVENPORT      CLEAR      3  -2  79 W8        30.09R WCI -10
6HR MIN TEMP:   3; 6HR MAX TEMP:  10;

IOWA CITY      CLOUDY     8   1  73 NW8       30.13S WCI  -4
6HR MIN TEMP:   8; 6HR MAX TEMP:  11;

MT. PLEASANT * CLOUDY    12   7  78 W5        30.13S WCI   4
MUSCATINE *    CLEAR      9   1  72 W7        30.14R WCI  -3
QUAD CITIES    CLEAR      8  -1  66 W7        30.10R WCI  -3
6HR MIN TEMP:   8; 6HR MAX TEMP:  12;

$$

IAZ062-063-075>077-085>089-095>099-101300-
   SOUTHEAST IOWA

CITY           SKY/WX    TMP DP  RH WIND       PRES   REMARKS
BURLINGTON     PTCLDY     9   4  80 NW6       30.12R WCI  -1
6HR MIN TEMP:   7; 6HR MAX TEMP:  12;

FAIRFIELD *    MOCLDY    10   3  72 NW6       30.13S WCI   1
FORT MADISON * CLEAR     10   5  79 W7        30.13S WCI   0
KEOKUK *       CLEAR     12   7  79 W5        30.13F WCI   4
OSKALOOSA *    CLOUDY    13   6  76 NW8       30.13S WCI   1
CENTERVILLE *  PTCLDY    14   9  79 CALM      30.13S
OTTUMWA        CLOUDY    13   6  74 NW6       30.13F WCI   4
6HR MIN TEMP:  10; 6HR MAX TEMP:  13;

WASHINGTON *   CLEAR      9   3  78 NW9       30.14R WCI  -5
$$

ABBREVIATIONS USED IN REMARKS
   TC - TEMPERATURES IN CELSIUS
  WCI - WIND CHILL INDEX
   HX - HEAT INDEX
  VSB - VISIBILITY
$$





USA.gov is the U.S. government's official web portal to all federal, state and local government web resources and services.